Flag for Malaysia Weather past 2 weeks in Kuala Lumpur, Malaysia

Now
86 °F

Broken clouds.


Feels Like: 97 °F
Forecast: 76 / 93 °F
Wind: 3 mph from Northwest

Location: Sultan Abdul Aziz Shah-Subang

Current Time: May 5, 2015 at 9:21:19 PM

Latest Report: May 5, 2015 at 8:00 PM


Visibility: N/A

Pressure: 29.74 "Hg

Humidity: 75%

Dew point: 77 °F

Location of Kuala LumpurLocation

Historic Weather in Kuala Lumpur — Graph

°F

Kuala Lumpur temperature yesterday

Maximum temperature yesterday: 93 °F (at 1:00 PM)
Minimum temperature yesterday: 79 °F (at 12:00 AM)
Average temperature yesterday: 83 °F

Past Weeks' High & Low Weather Summary

 TemperatureHumidityPressure
High95 °F (Apr 26, 2:00 PM)89% (Apr 25, 5:00 PM)29.92 "Hg (Apr 25, 5:00 PM)
Low75 °F (Apr 25, 5:00 PM)47% (Apr 25, 2:00 PM)29.71 "Hg (May 5, 5:00 PM)
Average84 °F77%29.83 "Hg
* Reported Apr 20 8:00 PM — May 5 8:00 PM, Kuala Lumpur, Weather by CustomWeather, © 2015

Note: Actual official high and low records may vary slightly from our data, if they occured in-between our weather recording intervals... More about our weather records

Advertising

Kuala Lumpur weather history for previous 24 hours

 ConditionsComfort  
Time TempWeatherWind HumidityBarometerVisibility
8:00 PM
Tue, May 5
86 °FBroken clouds.3 mph75%29.74 "HgN/A
7:00 PM88 °FPartly sunny.7 mph70%29.74 "HgN/A
6:00 PM90 °FBroken clouds.6 mph67%29.74 "HgN/A
5:00 PM90 °FThunderstorms. Broken clouds.10 mph67%29.71 "HgN/A
4:00 PM93 °FBroken clouds.7 mph56%29.74 "HgN/A
3:00 PM95 °FBroken clouds.9 mph56%29.74 "HgN/A
2:00 PM93 °FBroken clouds.12 mph59%29.77 "HgN/A
1:00 PM93 °FBroken clouds.8 mph59%29.80 "HgN/A
12:00 PM91 °FBroken clouds.5 mph67%29.83 "HgN/A
11:00 AM90 °FBroken clouds.5 mph67%29.83 "HgN/A
10:00 AM86 °FPartly sunny.8 mph75%29.86 "HgN/A
9:00 AM84 °FPartly sunny.3 mph79%29.86 "HgN/A
8:00 AM81 °FPassing clouds.5 mph84%29.83 "HgN/A
7:00 AM79 °FPassing clouds.3 mph89%29.83 "HgN/A
6:00 AM79 °FPassing clouds.No wind89%29.80 "Hg6 mi
4:00 AM79 °FPartly cloudy.No wind89%29.83 "Hg6 mi
3:00 AM81 °FPartly cloudy.1 mph84%29.83 "Hg6 mi
2:00 AM81 °FPartly cloudy.1 mph84%29.83 "Hg6 mi
1:00 AM81 °FPartly cloudy.1 mph84%29.86 "Hg5 mi
12:00 AM81 °FPartly cloudy.1 mph84%29.86 "Hg6 mi
11:00 PM
Mon, May 4
81 °FPartly cloudy.1 mph84%29.86 "Hg6 mi
10:00 PM82 °FPartly cloudy.No wind79%29.86 "Hg6 mi
9:00 PM82 °FPartly cloudy.No wind79%29.86 "HgN/A
Weather by CustomWeather, © 2015

See weather overviewHow to use our weather pages